Weather History for Puntzi Mountain, BC

Change the Weather History Date:

Wednesday, February 12, 2014

  Actual Average Record
Temperature  
Mean Temperature 21 °F -  
Max Temperature 41 °F - - ()
Min Temperature 1 °F - - ()
Degree Days  
Heating Degree Days 44    
Moisture  
Dew Point 16 °F    
Average Humidity 71    
Maximum Humidity 96    
Minimum Humidity 21    
Precipitation  
Precipitation 0.08 in - - ()
Sea Level Pressure  
Sea Level Pressure 29.49 in    
Wind  
Wind Speed 3 mph ()    
Max Wind Speed 15 mph    
Max Gust Speed 22 mph    
T = Trace of Precipitation, MM = Missing Value Source: Averaged Metar Reports

Daily Weather History Graph

Daily Weather History Graph

Search for Another Location

Airport:

Trip Planner

Search our weather history database for the weather conditions in past years. The results will help you decide how hot, cold, wet, or windy it might be!

Date:

Astronomy

Feb. 12, 2014 Rise Set
Actual Time 7:37 AM PST 5:25 PM PST
Civil Twilight 7:01 AM PST 6:00 PM PST
Nautical Twilight 6:22 AM PST 6:40 PM PST
Astronomical Twilight 5:43 AM PST 7:19 PM PST
Moon 3:39 PM PST (2/12) 6:04 AM PST (2/12)
Length of Visible Light 10h 58m
Length of Day
9h 47m
Waxing Gibbous, 96% of the Moon is Illuminated
Feb 12
Waxing Gibbous
Feb 14
Full
Feb 22
Last Quarter
Mar 1
New
Mar 8
First Quarter

Hourly Weather History & Observations

Time (PST) Temp. Windchill Dew Point Humidity Pressure Visibility Wind Dir Wind Speed Gust Speed Precip Events Conditions
12:00 AM 23.0 °F 18.4 °F 18.1 °F 82% 29.40 in - West 3.5 mph - N/A   Unknown
1:00 AM 23 °F - 18 °F 75% 29.38 in - WNW 2.3 mph - -  
1:00 AM 23.2 °F - 18.3 °F 82% 29.38 in - West 2.3 mph - N/A   Unknown
2:00 AM 22.5 °F - 19.4 °F 88% 29.36 in - Calm Calm - N/A   Unknown
3:00 AM 21.7 °F - 18.5 °F 87% 29.34 in - WSW 1.2 mph - N/A   Unknown
4:00 AM 20 °F - 16 °F 79% 29.36 in - SW 2.3 mph - -  
4:00 AM 19.8 °F - 16.3 °F 87% 29.36 in - South 1.2 mph - N/A   Unknown
5:00 AM 16.3 °F - 14.4 °F 92% 29.38 in - WNW 1.2 mph - N/A   Unknown
6:00 AM 11.5 °F - 9.9 °F 93% 29.41 in - Calm Calm - N/A   Unknown
7:00 AM 12 °F - 11 °F 92% 29.46 in - West 1.2 mph - -  
7:00 AM 12.0 °F - 10.8 °F 95% 29.46 in - WNW 2.3 mph - 0.06 in   Unknown
8:00 AM 15.4 °F - 14.4 °F 95% 29.49 in - Variable 1.2 mph - N/A   Unknown
9:00 AM 15.8 °F 10.2 °F 14.2 °F 93% 29.53 in - West 3.5 mph - N/A   Unknown
10:00 AM 22 °F - 21 °F 95%  in - NE 3.5 mph - -  
10:00 AM 22.3 °F - 21.2 °F 96% 29.53 in - ENE 2.3 mph - N/A   Unknown
11:00 AM 32.4 °F 29.1 °F 17.1 °F 53% 29.53 in - South 3.5 mph - N/A   Unknown
12:00 PM 39.6 °F 32.5 °F 16.7 °F 40% 29.54 in - SW 11.5 mph 18.4 mph N/A   Unknown
1:00 PM 41 °F - 15 °F 21% 29.52 in - SW 15.0 mph - -  
1:00 PM 40.8 °F 33.3 °F 14.9 °F 35% 29.52 in - SW 13.8 mph 21.9 mph N/A   Unknown
2:00 PM 38.5 °F 30.7 °F 15.1 °F 39% 29.53 in - WSW 12.7 mph 18.4 mph N/A   Unknown
3:00 PM 40.6 °F 33.4 °F 14.5 °F 35% 29.53 in - SW 12.7 mph - N/A   Unknown
4:00 PM 38 °F - 17 °F 29% 29.57 in - WSW 13.8 mph - -  
4:00 PM 38.1 °F 29.8 °F 17.1 °F 43% 29.57 in - WSW 13.8 mph 19.6 mph N/A   Unknown
5:00 PM 34.9 °F 32.0 °F 18.0 °F 50% 29.56 in - WSW 3.5 mph - N/A   Unknown
6:00 PM 26.6 °F 21.2 °F 16.3 °F 65% 29.59 in - NE 4.6 mph - N/A   Unknown
7:00 PM 22 °F - 15 °F 63% 29.59 in - West 1.2 mph - -  
7:00 PM 22.3 °F - 14.7 °F 73% 29.59 in - South 1.2 mph - N/A   Unknown
8:00 PM 21.9 °F - 16.0 °F 78% 29.56 in - ENE 2.3 mph - 0.03 in   Unknown
9:00 PM 23.7 °F - 17.4 °F 77% 29.54 in - ENE 2.3 mph - N/A   Unknown
10:00 PM 23 °F - 17 °F 68% 29.50 in - NNW 1.2 mph - -  
10:00 PM 22.6 °F - 16.9 °F 79% 29.50 in - Calm Calm - N/A   Unknown
11:00 PM 22.3 °F - 16.7 °F 79% 29.46 in - NNW 2.3 mph - N/A   Unknown